This is the latest recevied weather packets stored in our database for station/object ON6OO-13. If no packets are shown the sender has not sent any weather packets the latest 1 day(s).
| Time | Temp. | Humidity | Pressure | Rain* | Wind** | Luminosity | Snow |
|---|---|---|---|---|---|---|---|
| 1778009891 | 10.56° C | 92% | 1009.1 hPa | 0 mm | 0 m/s | - | - |
| 1778008979 | 11.11° C | 92% | 1009.1 hPa | 0 mm | 0 m/s | - | - |
| 1778008067 | 11.11° C | 92% | 1009.4 hPa | 0 mm | 0 m/s | - | - |
| 1778007155 | 11.11° C | 92% | 1009.1 hPa | 0 mm | 0.45 m/s, 352° | - | - |
| 1778006243 | 11.11° C | 92% | 1009.1 hPa | 0 mm | 0 m/s | - | - |
| 1778005331 | 11.11° C | 91% | 1009.1 hPa | 0 mm | 0.45 m/s, 353° | - | - |
| 1778004419 | 11.11° C | 91% | 1009.1 hPa | 0 mm | 1.34 m/s, 29° | - | - |
| 1778003507 | 11.11° C | 91% | 1008.8 hPa | 0 mm | 2.24 m/s, 346° | - | - |
| 1778002595 | 11.11° C | 91% | 1009.1 hPa | 0 mm | 3.13 m/s, 358° | - | - |
| 1778001683 | 11.11° C | 91% | 1009.1 hPa | 0 mm | 2.68 m/s, 345° | - | - |
| 1778000771 | 11.11° C | 92% | 1009.1 hPa | 0 mm | 0 m/s | - | - |
| 1777999859 | 11.11° C | 92% | 1009.1 hPa | 0 mm | 1.79 m/s, 357° | - | - |
| 1777998947 | 11.11° C | 93% | 1009.1 hPa | 0 mm | 1.34 m/s, 330° | - | - |
| 1777998035 | 11.11° C | 92% | 1009.1 hPa | 0 mm | 1.79 m/s, 10° | - | - |
| 1777997123 | 11.11° C | 92% | 1009.1 hPa | 0 mm | 4.02 m/s, 324° | - | - |
| 1777996211 | 11.11° C | 92% | 1009.1 hPa | 0 mm | 2.24 m/s, 352° | - | - |
| 1777995299 | 11.11° C | 92% | 1009.1 hPa | 0 mm | 0 m/s | - | - |
| 1777994387 | 10.56° C | 92% | 1009.1 hPa | 0 mm | 3.13 m/s, 10° | - | - |
| 1777993475 | 10.56° C | 93% | 1009.4 hPa | 0 mm | 0.89 m/s, 51° | - | - |
| 1777992562 | 10.56° C | 93% | 1009.4 hPa | 0 mm | 0.45 m/s, 4° | - | - |
| 1777991650 | 10° C | 94% | 1009.8 hPa | 0 mm | 1.79 m/s, 348° | - | - |
| 1777990738 | 10° C | 95% | 1009.8 hPa | 0 mm | 2.68 m/s, 42° | - | - |
| 1777989827 | 10° C | 95% | 1009.8 hPa | 0 mm | 2.68 m/s, 5° | - | - |
| 1777988914 | 10° C | 96% | 1009.8 hPa | 0 mm | 1.79 m/s, 12° | - | - |
| 1777988003 | 10° C | 96% | 1010.1 hPa | 0 mm | 1.79 m/s, 336° | - | - |
* Rain latest hour (hover to see other rain measurements)
** Current wind speed in m/s (hover to see current wind gust speed)